Hourly Data Report for July 03, 2021

CAPE RACE (AUT)
NEWFOUNDLAND
Current Station Operator: ECCC - MSC

46°39'36.000" N
53°04'35.000" W
26.50 m
8401000
71800
WRA

Download Data

Hourly Data (July 2021)
Hourly Data Report for July 3, 2021
TIME
LST
Temp Definition
°C
Dew Point Definition
°C
Rel Hum Definition
%
Precip. Amount Definition
mm

Wind Dir Definition
10's deg

Wind Spd Definition
km/h
Visibility Definition
km
Stn Press Definition
kPa
Hmdx Definition


Wind Chill Definition


Weather Definition


00:30 8.5 LegendMM LegendMM 1.1 6 26   101.18     LegendNANA
01:30 8.4 LegendMM LegendMM 0.4 6 29   101.13     LegendNANA
02:30 8.4 LegendMM LegendMM 1.5 6 27   101.12     LegendNANA
03:30 8.5 LegendMM LegendMM 1.1 5 24   101.11     LegendNANA
04:30 8.6 LegendMM LegendMM 1.2 6 25   101.14     LegendNANA
05:30 8.6 LegendMM LegendMM 0.8 6 27   101.19     LegendNANA
06:30 8.7 LegendMM LegendMM 0.8 4 30   101.25     LegendNANA
07:30 8.9 LegendMM LegendMM 0.0 5 25   101.25     LegendNANA
08:30 9.6 LegendMM LegendMM 0.2 4 30   101.32     LegendNANA
09:30 9.4 LegendMM LegendMM 0.0 5 25   101.33     LegendNANA
10:30 10.4 LegendMM LegendMM 0.0 6 23   101.36     LegendNANA
11:30 9.8 LegendMM LegendMM 0.0 6 22   101.44     LegendNANA
12:30 9.9 LegendMM LegendMM 0.0 4 28   101.42     LegendNANA
13:30 9.8 LegendMM LegendMM 0.0 4 28   101.42     LegendNANA
14:30 9.5 LegendMM LegendMM 0.0 4 26   101.48     LegendNANA
15:30 9.7 LegendMM LegendMM 0.0 6 22   101.43     LegendNANA
16:30 9.3 LegendMM LegendMM 0.0 6 18   101.47     LegendNANA
17:30 8.7 LegendMM LegendMM 0.0 7 19   101.41     LegendNANA
18:30 8.7 LegendMM LegendMM 0.0 7 20   101.42     LegendNANA
19:30 8.7 LegendMM LegendMM 0.0 7 17   101.48     LegendNANA
20:30 8.7 LegendMM LegendMM 0.0 7 17   101.51     LegendNANA
21:30 8.7 LegendMM LegendMM 0.0 8 15   101.56     LegendNANA
22:30 8.7 LegendMM LegendMM 0.0 8 14   101.54     LegendNANA
23:30 8.8 LegendMM LegendMM 0.0 6 17   101.52     LegendNANA

Notes on Data Quality.

Legend

  • E = Estimated
  • M = Missing
  • NA = Not Available*
  • [empty] = Indicates an unobserved value
Date modified: